Weather History for CYMX - October, 2013

Change the Weather History Date:

Saturday, October 26, 2013

  Actual Average Record
Temperature  
Mean Temperature 34 °F -  
Max Temperature 41 °F 47 °F 68 °F (2012)
Min Temperature 28 °F 31 °F 19 °F (1997)
Degree Days  
Heating Degree Days 30    
Moisture  
Dew Point 32 °F    
Average Humidity 87    
Maximum Humidity 100    
Minimum Humidity 76    
Precipitation  
Precipitation 0.00 in - - ()
Sea Level Pressure  
Sea Level Pressure 29.87 in    
Wind  
Wind Speed 5 mph ()    
Max Wind Speed 20 mph    
Max Gust Speed 32 mph    
Visibility 8.9 miles    
Events Rain , Snow    
Averages and records for this station are not official NWS values.
T = Trace of Precipitation, MM = Missing Value Source: Averaged Metar Reports

Daily Weather History Graph

Daily Weather History Graph

Search for Another Location

Airport or City:

Trip Planner

Search our weather history database for the weather conditions in past years. The results will help you decide how hot, cold, wet, or windy it might be!

Date:

Astronomy

Oct. 26, 2013 Rise Set
Actual Time 7:27 AM EDT 5:51 PM EDT
Civil Twilight 6:57 AM EDT 6:22 PM EDT
Nautical Twilight 6:22 AM EDT 6:56 PM EDT
Astronomical Twilight 5:48 AM EDT 7:31 PM EDT
Moon No Moon Rise 1:45 PM EDT (10/26)
Length of Visible Light 11h 24m
Length of Day
10h 23m
Waning Gibbous, 53% of the Moon is Illuminated
Oct 26
Waning Gibbous
Oct 26
Last Quarter
Nov 3
New
Nov 10
First Quarter
Nov 17
Full

Hourly Weather History & Observations

Time (EDT) Temp. Windchill Dew Point Humidity Pressure Visibility Wind Dir Wind Speed Gust Speed Precip Events Conditions
12:00 AM 28.4 °F - 23.0 °F 80% 30.09 in 25.0 mi Calm Calm - N/A   Scattered Clouds
1:00 AM 28.4 °F - 24.8 °F 86% 30.08 in 25.0 mi SW 2.3 mph - N/A   Mostly Cloudy
2:00 AM 28.4 °F - 24.8 °F 86% 30.06 in 25.0 mi WSW 2.3 mph - N/A   Mostly Cloudy
3:00 AM 30.2 °F 26.7 °F 24.8 °F 80% 30.05 in 25.0 mi SW 3.5 mph - N/A   Mostly Cloudy
4:00 AM 30.2 °F - 24.8 °F 80% 30.02 in 25.0 mi Calm Calm - N/A   Mostly Cloudy
5:00 AM 30.2 °F - 26.6 °F 86% 30.00 in 25.0 mi Variable 2.3 mph - N/A   Overcast
6:00 AM 30.2 °F - 26.6 °F 86% 29.98 in 25.0 mi Calm Calm - N/A   Mostly Cloudy
6:31 AM 30.2 °F - 26.6 °F 86% 29.98 in 15.0 mi Calm Calm - N/A Snow Light Snow
6:50 AM 30.2 °F - 28.4 °F 93% 29.98 in 2.0 mi North 2.3 mph - N/A Snow Light Snow
7:00 AM 30.2 °F - 28.4 °F 93% 29.98 in 3.0 mi Variable 2.3 mph - N/A Snow Light Snow
7:45 AM 32.0 °F 28.7 °F 30.2 °F 93% 29.96 in 3.0 mi South 3.5 mph - N/A Snow Light Snow
8:00 AM 32.0 °F 27.5 °F 30.2 °F 93% 29.96 in 4.0 mi SSE 4.6 mph - N/A Snow Light Snow
8:14 AM 32.0 °F 26.4 °F 32.0 °F 100% 29.96 in 4.0 mi South 5.8 mph - N/A Rain , Snow Light Rain
8:31 AM 33.8 °F 29.6 °F 32.0 °F 93% 29.95 in 8.0 mi South 4.6 mph - N/A Rain Light Rain
9:00 AM 35.6 °F 31.7 °F 33.8 °F 93% 29.94 in 5.0 mi South 4.6 mph - N/A Rain Light Rain
10:00 AM 37.4 °F 29.3 °F 35.6 °F 93% 29.91 in 6.0 mi South 12.7 mph 19.6 mph N/A Rain Light Rain
11:00 AM 39.2 °F 32.5 °F 37.4 °F 93% 29.87 in 7.0 mi South 10.4 mph - N/A Rain Light Rain
11:29 AM 39.2 °F 33.0 °F 37.4 °F 93% 29.85 in 6.0 mi South 9.2 mph - N/A Rain Light Rain
12:00 PM 39.2 °F 32.0 °F 35.6 °F 87% 29.83 in 6.0 mi South 11.5 mph 18.4 mph N/A Rain Light Rain
1:00 PM 39.2 °F 33.0 °F 35.6 °F 87% 29.80 in 6.0 mi South 9.2 mph - N/A Rain Light Rain
1:43 PM 39.2 °F 32.0 °F 35.6 °F 87% 29.77 in 10.0 mi South 11.5 mph 17.3 mph N/A Rain Light Rain
2:00 PM 39.2 °F 31.2 °F 35.6 °F 87% 29.76 in 20.0 mi South 13.8 mph 19.6 mph N/A   Overcast
3:00 PM 41.0 °F 33.9 °F 33.8 °F 76% 29.75 in 25.0 mi South 12.7 mph - N/A   Overcast
3:53 PM 41.0 °F 33.9 °F 33.8 °F 76% 29.75 in 25.0 mi SSW 12.7 mph 23.0 mph N/A   Light Drizzle
4:00 PM 41.0 °F 32.5 °F 33.8 °F 76% 29.75 in 25.0 mi SW 17.3 mph - N/A   Light Drizzle
4:23 PM 41.0 °F 31.9 °F 33.8 °F 76% 29.75 in 25.0 mi SSW 19.6 mph 29.9 mph N/A Rain Light Rain
5:00 PM 39.2 °F 29.6 °F 33.8 °F 81% 29.75 in 6.0 mi SSW 19.6 mph 32.2 mph N/A Rain Light Rain
6:00 PM 39.2 °F 32.5 °F 35.6 °F 87% 29.75 in 10.0 mi SW 10.4 mph - N/A Rain Light Rain
7:00 PM 39.2 °F 31.2 °F 35.6 °F 87% 29.75 in 10.0 mi SW 13.8 mph 21.9 mph N/A Rain Light Rain
8:00 PM 39.2 °F 32.0 °F 35.6 °F 87% 29.75 in 20.0 mi SW 11.5 mph 18.4 mph N/A Rain Light Rain
9:00 PM 41.0 °F 34.3 °F 35.6 °F 81% 29.75 in 25.0 mi SW 11.5 mph 17.3 mph N/A   Overcast
10:00 PM 41.0 °F 34.7 °F 37.4 °F 87% 29.74 in 15.0 mi SW 10.4 mph 18.4 mph N/A   Overcast
10:39 PM 41.0 °F 34.7 °F 37.4 °F 87% 29.73 in 15.0 mi SW 10.4 mph 17.3 mph N/A Rain Light Rain
11:00 PM 41.0 °F 33.9 °F 37.4 °F 87% 29.73 in 15.0 mi SW 12.7 mph 19.6 mph N/A Rain Light Rain